Location: Newark
(40.3820°N, 3.6624°W)
Time: 05:43:34
(UTC+00:00)

N. Korean satellite - Pass Details

Date: 17 November 2019
Orbit: 456 x 506 km, 97.2° (Epoch: 07 December)

Event Time Altitude Azimuth Distance (km) Brightness Sun altitude
Rises 05:26:17 0° 24° (NNE) 2,614 10.5 -18.3°
Reaches altitude 10° 05:28:39 10° 38° (NE) 1,720 9.7 -17.9°
Maximum altitude 05:31:46 25° 95° (E) 1,044 9.1 -17.3°
Drops below altitude 10° 05:34:49 10° 152° (SSE) 1,691 9.8 -16.7°
Sets 05:37:08 0° 166° (SSE) 2,560 10.6 -16.3°
